Wind_Speed
23 22 22 22 23 23 24 24 25 25 26 26 26 27 28 28 28 29 29 30 31 31 32 33 33 33 34 35 36 36 37 38 38 39 39 40 40 41 41 41 41 41 42
24 24 24 24 25 25 25 25 26 26 27 27 28 28 29 30 30 31 31 32 32 33 34 35 35 36 36 37 37 38 39 40 40 40 41 41 41 42 42 42 42 42 43
26 26 25 26 26 26 27 27 27 27 28 28 29 30 31 31 32 33 33 33 34 35 36 36 37 37 38 38 39 39 40 41 41 42 42 43 43 43 43 43 44 44 45
27 27 27 27 27 27 28 28 29 28 29 29 30 31 32 33 33 34 35 35 36 37 37 37 38 39 39 39 40 41 41 42 43 43 44 44 45 45 46 46 47 47 47
28 29 29 28 28 29 29 30 30 30 30 30 31 32 33 34 35 35 36 37 37 38 39 39 39 40 40 41 41 43 44 44 45 45 45 46 46 47 48 49 49 49 49
30 30 30 30 30 30 30 30 31 31 31 31 32 32 33 35 35 36 37 38 38 39 39 40 41 41 42 42 43 44 45 46 46 46 47 47 47 48 49 49 50 50 50
31 31 31 31 31 31 31 31 32 32 32 32 33 34 34 35 36 37 38 38 39 39 39 40 41 42 43 45 45 46 47 47 48 48 49 48 49 49 50 50 50 50 51
33 33 32 32 32 32 32 32 32 32 33 34 34 35 36 36 37 38 38 39 39 40 40 41 42 43 45 46 47 48 49 49 49 49 49 50 50 51 51 51 51 51 52
35 35 34 33 33 33 33 32 33 33 34 35 36 36 37 37 38 38 39 40 40 41 42 43 44 45 47 49 50 50 50 50 51 50 51 51 51 52 52 52 52 52 53
35 35 35 34 34 34 34 34 35 35 36 37 37 38 38 39 39 39 40 41 42 43 45 46 47 48 49 51 52 51 50 50 51 51 52 52 52 52 51 51 52 52 53
35 35 35 35 35 35 35 35 36 36 37 37 37 38 38 39 40 41 40 42 44 45 47 48 50 50 51 51 51 50 50 50 51 51 52 52 52 52 52 52 52 52 51
37 36 36 36 36 36 36 36 37 37 38 39 39 39 40 41 42 42 43 44 45 46 48 49 50 51 50 50 50 50 50 50 50 51 51 52 51 51 51 51 51 50 50
38 38 37 37 37 37 37 37 38 38 39 40 40 42 43 44 45 45 46 47 47 47 48 49 50 50 49 49 49 50 51 51 51 51 52 52 51 50 50 50 49 48 48
39 38 38 38 38 38 38 38 38 39 40 41 41 42 43 45 46 46 47 48 47 47 48 48 49 49 49 49 50 51 51 51 52 52 52 51 51 51 50 48 48 47 46
39 39 39 39 39 39 40 40 39 40 41 41 42 43 44 45 46 48 48 49 49 48 47 48 48 48 49 49 50 51 52 52 52 52 52 52 51 50 48 47 46 45 44
41 40 40 40 40 40 40 40 41 41 42 42 43 44 44 46 47 48 49 49 50 49 48 48 48 48 50 51 52 52 52 53 52 53 52 52 50 48 46 45 44 43 42
41 41 41 41 41 41 41 42 42 43 43 43 44 45 45 46 47 48 49 50 50 49 49 48 48 49 50 51 51 52 52 52 52 52 52 51 49 46 45 43 42 41 40
42 42 42 42 42 43 43 43 44 44 44 44 45 45 46 47 48 48 49 50 49 49 49 48 47 49 50 50 51 51 51 51 51 51 50 49 46 44 43 41 40 40 39
42 42 43 43 43 44 44 45 45 45 45 45 46 46 47 47 48 48 49 48 48 49 49 48 47 48 49 50 50 50 50 50 50 49 48 46 44 42 41 39 38 38 37
43 43 43 44 44 44 45 46 46 46 46 46 47 47 48 48 48 48 47 47 48 48 47 47 47 48 48 48 48 48 48 49 49 47 45 43 41 40 38 37 37 36 36
43 43 43 44 45 45 46 46 46 46 47 47 48 47 47 48 48 47 47 47 47 47 46 47 48 48 47 48 48 48 48 47 45 42 41 40 38 37 36 36 35 35 34
43 43 43 44 44 45 46 46 47 47 47 48 47 47 47 46 46 46 46 47 47 46 46 47 47 47 47 48 48 47 46 44 42 39 38 37 36 35 35 34 34 34 33
43 44 44 44 44 44 45 46 47 47 47 47 46 46 46 46 46 46 47 47 47 46 47 46 46 46 46 46 46 45 44 42 40 37 36 35 35 34 34 33 33 33 32
44 44 43 44 44 44 45 45 46 46 46 46 46 45 44 44 45 46 46 46 45 45 45 45 45 44 45 45 44 44 42 39 37 36 35 33 33 33 33 33 31 31 30
44 44 44 43 43 44 44 44 44 45 45 45 44 44 44 44 44 45 45 44 44 43 43 43 43 43 43 43 42 41 39 37 36 35 34 33 33 33 32 31 30 29 28
44 44 44 44 44 44 44 44 44 45 44 44 43 43 43 44 43 44 44 42 42 41 41 41 42 42 42 41 40 38 36 36 35 34 33 32 32 31 29 28 28 27 25
Wind_Direction
272 274 276 278 281 285 288 290 292 294 295 296 298 299 300 300 301 302 304 305 305 305 305 306 305 304 303 303 303 303 302 302 301 301 300 299 298 298 297 296 295 294 294
270 273 275 277 280 283 286 288 291 293 294 297 297 298 300 300 300 302 303 304 305 305 305 305 305 304 304 303 303 303 302 302 301 301 300 300 299 298 297 296 296 296 295
269 271 274 276 278 281 284 287 289 291 293 295 297 298 298 300 300 301 303 303 304 304 304 304 304 304 304 304 303 303 303 302 302 301 301 300 299 299 298 297 296 296 296
267 270 273 275 277 280 283 286 288 289 292 293 295 297 298 299 300 301 302 304 304 303 303 304 304 304 305 304 304 304 304 303 303 302 302 301 300 299 298 297 297 296 295
266 269 272 275 278 279 281 283 286 287 290 292 294 297 299 299 300 301 302 303 304 304 303 303 303 304 304 304 304 304 304 304 304 303 302 301 300 299 298 298 297 296 295
267 269 272 275 278 279 280 282 285 287 289 291 293 295 298 300 301 302 303 302 303 304 303 303 303 303 303 304 304 305 305 305 304 303 302 301 301 300 298 297 296 296 295
266 269 273 275 276 278 280 282 284 287 289 290 293 294 297 299 300 302 303 303 304 304 303 303 303 303 303 304 304 304 305 305 304 303 303 302 301 300 299 298 297 296 296
266 269 272 274 275 278 280 281 284 286 287 290 292 294 296 298 300 301 302 303 303 303 303 303 303 303 303 304 304 304 305 305 304 304 303 302 301 300 299 298 297 297 297
265 268 270 272 275 277 279 281 283 287 289 291 292 294 295 297 298 300 302 302 303 303 304 303 304 305 305 305 306 306 305 305 305 305 304 304 303 302 301 300 299 298 298
265 267 269 272 275 276 278 280 283 286 289 291 292 294 295 297 298 299 301 303 304 304 304 304 305 305 306 307 307 306 306 306 306 306 305 304 304 303 302 301 301 301 300
265 267 269 271 273 276 278 280 283 286 288 291 293 294 296 298 299 300 302 304 305 305 306 306 306 306 306 307 307 308 307 307 307 307 307 306 305 304 302 302 302 302 301
264 267 269 271 273 276 278 280 283 285 288 290 292 294 296 298 299 301 302 304 305 306 307 307 307 306 307 307 308 308 309 309 308 308 308 307 306 305 303 303 302 302 301
264 266 269 270 273 275 278 281 283 286 288 290 292 294 296 298 299 301 303 304 306 306 307 307 307 307 307 308 309 309 309 309 309 309 309 308 307 306 305 304 303 302 302
263 265 268 270 273 276 278 281 283 286 288 290 292 294 296 298 299 301 303 304 305 307 307 307 308 308 308 308 309 310 310 309 309 309 309 309 308 307 306 304 303 302 303
262 265 267 269 273 275 278 281 283 286 288 290 292 294 296 298 299 302 304 305 306 307 308 307 307 307 308 309 310 310 310 310 310 310 310 309 309 308 306 305 304 304 304
262 265 266 269 272 274 277 280 283 286 288 290 292 294 296 297 299 302 304 305 306 307 308 309 308 307 309 310 310 311 311 311 310 310 310 310 310 308 307 306 306 306 305
262 264 266 268 271 274 277 280 283 286 288 290 292 295 296 297 299 301 303 304 305 306 307 309 309 309 310 311 311 312 312 312 312 312 312 311 310 309 308 308 307 306 307
262 264 266 268 271 273 277 280 282 285 288 290 292 294 296 298 299 300 302 304 305 306 307 309 309 309 310 311 312 313 313 313 313 314 313 312 311 309 309 309 308 307 307
262 263 266 268 271 273 276 279 282 284 286 289 291 293 295 297 298 300 301 303 304 306 307 308 309 309 310 311 312 314 315 315 316 315 314 314 312 311 311 311 310 310 309
261 263 265 268 270 273 276 279 281 284 286 287 290 292 294 296 297 299 300 302 303 305 306 307 309 310 311 312 313 315 316 317 317 316 316 316 315 315 315 314 314 314 312
262 264 266 268 271 273 276 278 280 283 285 287 289 291 293 295 296 298 300 301 303 304 305 307 308 310 311 312 313 314 317 318 318 317 316 317 316 316 316 317 317 317 315
263 265 267 269 271 274 276 278 280 282 285 286 288 290 291 294 296 297 300 301 302 303 305 306 308 310 311 312 313 315 317 319 318 317 318 319 318 318 318 318 319 319 317
263 266 268 270 272 274 276 278 280 282 284 286 288 289 291 293 294 295 298 300 301 302 304 306 307 310 311 313 315 316 318 318 319 318 319 321 322 321 320 320 320 321 321
263 266 269 271 272 274 276 279 280 282 284 285 287 288 291 293 294 295 297 298 300 302 304 305 307 309 311 312 314 316 318 319 320 321 321 322 322 323 322 322 321 322 322
265 266 269 270 271 274 277 279 281 283 284 285 286 288 290 292 295 296 298 298 299 301 303 305 307 309 310 312 314 316 317 318 320 321 322 322 322 323 324 324 323 323 322
266 267 269 270 272 274 277 279 281 283 284 284 286 287 289 291 293 296 297 297 299 301 302 304 306 308 309 311 314 315 316 318 320 321 322 323 325 326 326 326 325 326 327
Height
5839 5839 5839 5839 5838 5838 5837 5837 5836 5835 5834 5832 5831 5829 5827 5825 5823 5821 5818 5816 5813 5810 5808 5805 5802 5799 5795 5792 5789 5785 5782 5778 5775 5771 5768 5764 5761 5757 5754 5750 5747 5744 5741
5834 5834 5834 5834 5834 5833 5832 5832 5831 5830 5829 5827 5826 5824 5822 5820 5817 5815 5813 5810 5807 5804 5801 5798 5795 5792 5788 5785 5781 5777 5774 5770 5766 5763 5759 5755 5751 5748 5744 5741 5737 5734 5730
5829 5829 5829 5829 5828 5828 5827 5827 5826 5825 5823 5822 5820 5818 5816 5814 5812 5809 5807 5804 5801 5798 5795 5791 5788 5784 5781 5777 5773 5769 5765 5761 5758 5754 5749 5745 5741 5738 5734 5730 5727 5723 5719
5823 5823 5823 5823 5823 5823 5822 5821 5820 5819 5818 5817 5815 5813 5810 5808 5806 5803 5800 5797 5794 5791 5787 5784 5780 5777 5773 5769 5765 5761 5757 5752 5748 5744 5740 5735 5731 5727 5723 5719 5715 5711 5707
5817 5818 5818 5818 5817 5817 5817 5816 5815 5814 5812 5811 5809 5807 5804 5802 5799 5796 5793 5790 5787 5783 5780 5776 5772 5768 5764 5760 5756 5752 5747 5743 5738 5734 5729 5725 5720 5716 5711 5707 5703 5698 5695
5811 5811 5812 5812 5811 5811 5810 5810 5809 5807 5806 5805 5803 5801 5798 5795 5793 5790 5786 5783 5779 5776 5772 5768 5764 5760 5756 5752 5747 5742 5738 5733 5728 5723 5718 5713 5708 5704 5699 5694 5690 5685 5681
5805 5805 5805 5805 5805 5805 5804 5803 5802 5801 5799 5798 5796 5794 5792 5789 5786 5783 5779 5776 5772 5768 5764 5760 5756 5751 5747 5742 5737 5733 5728 5722 5717 5712 5707 5702 5697 5691 5687 5682 5677 5672 5668
5798 5798 5798 5799 5798 5798 5797 5797 5796 5794 5792 5791 5789 5787 5785 5784 5780 5776 5772 5768 5764 5760 5756 5752 5747 5742 5737 5732 5727 5722 5717 5711 5706 5700 5695 5689 5684 5679 5673 5669 5664 5659 5654
5791 5791 5792 5792 5791 5791 5790 5789 5789 5787 5786 5784 5782 5780 5777 5775 5773 5770 5766 5761 5756 5752 5748 5742 5737 5732 5727 5722 5716 5710 5705 5699 5693 5687 5682 5676 5671 5665 5660 5655 5650 5645 5640
5783 5784 5784 5785 5784 5784 5783 5782 5781 5780 5778 5776 5774 5772 5769 5766 5763 5761 5758 5753 5748 5743 5738 5733 5727 5722 5716 5710 5704 5698 5692 5687 5681 5675 5669 5663 5658 5652 5646 5641 5635 5630 5624
5776 5777 5777 5777 5777 5777 5776 5775 5774 5772 5771 5769 5766 5764 5761 5758 5755 5752 5749 5745 5740 5735 5729 5723 5717 5711 5705 5699 5693 5687 5681 5675 5669 5663 5657 5651 5644 5638 5633 5627 5621 5615 5610
5768 5769 5770 5770 5769 5769 5768 5767 5766 5764 5763 5761 5758 5755 5752 5749 5746 5742 5739 5736 5731 5726 5720 5713 5706 5700 5694 5688 5682 5676 5670 5664 5658 5651 5645 5638 5632 5625 5619 5614 5608 5602 5596
5760 5761 5761 5761 5761 5761 5760 5759 5758 5757 5755 5752 5750 5747 5744 5740 5737 5733 5729 5726 5722 5717 5710 5703 5696 5689 5683 5677 5671 5666 5660 5653 5646 5640 5633 5626 5619 5613 5606 5600 5595 5589 5583
5752 5752 5753 5753 5753 5753 5752 5751 5750 5748 5746 5744 5741 5738 5735 5731 5727 5723 5719 5715 5711 5708 5701 5694 5687 5679 5673 5667 5661 5655 5649 5642 5635 5628 5621 5614 5607 5600 5594 5588 5582 5576 5571
5743 5744 5744 5745 5745 5744 5744 5742 5741 5740 5737 5735 5732 5729 5726 5722 5718 5713 5709 5704 5699 5696 5692 5685 5678 5670 5664 5657 5651 5645 5638 5630 5623 5616 5609 5602 5595 5588 5581 5575 5569 5564 5558
5734 5735 5735 5736 5736 5735 5735 5734 5732 5730 5729 5726 5723 5720 5717 5713 5709 5704 5699 5694 5688 5683 5679 5674 5667 5660 5654 5647 5640 5633 5626 5619 5611 5604 5597 5590 5583 5576 5570 5564 5558 5553 5547
5724 5725 5726 5726 5726 5726 5725 5724 5723 5721 5719 5717 5714 5711 5707 5703 5699 5694 5689 5684 5679 5673 5669 5664 5656 5650 5643 5637 5630 5622 5615 5608 5600 5592 5585 5578 5571 5565 5559 5553 5547 5542 5537
5714 5716 5716 5717 5717 5716 5716 5715 5714 5712 5710 5707 5705 5701 5697 5693 5689 5684 5679 5674 5669 5663 5658 5653 5647 5640 5633 5627 5620 5613 5605 5597 5589 5582 5574 5567 5560 5554 5548 5543 5537 5532 5527
5704 5705 5706 5707 5707 5706 5706 5705 5704 5702 5700 5697 5695 5691 5688 5683 5679 5674 5669 5664 5659 5653 5647 5642 5637 5630 5624 5617 5611 5603 5595 5587 5579 5571 5564 5557 5551 5545 5539 5534 5528 5523 5518
5694 5695 5696 5696 5696 5696 5695 5694 5693 5692 5689 5687 5684 5681 5677 5673 5669 5664 5659 5654 5649 5644 5638 5633 5627 5621 5615 5608 5601 5595 5588 5579 5570 5562 5555 5549 5543 5537 5531 5526 5521 5515 5510
5684 5685 5685 5686 5686 5685 5685 5683 5682 5681 5679 5676 5673 5670 5666 5662 5658 5653 5649 5644 5639 5634 5629 5624 5618 5612 5606 5600 5593 5585 5578 5571 5563 5555 5548 5542 5536 5531 5525 5519 5513 5508 5503
5673 5674 5675 5675 5675 5675 5674 5672 5671 5670 5667 5665 5663 5659 5656 5652 5648 5643 5638 5633 5628 5624 5619 5614 5609 5603 5597 5590 5584 5576 5569 5563 5557 5551 5543 5536 5530 5524 5519 5513 5507 5502 5496
5663 5664 5664 5664 5664 5664 5662 5661 5660 5658 5656 5654 5651 5649 5645 5641 5638 5634 5629 5624 5619 5614 5609 5605 5599 5594 5588 5582 5576 5570 5562 5554 5548 5542 5536 5531 5524 5518 5512 5507 5501 5496 5490
5653 5653 5654 5654 5653 5653 5651 5650 5648 5647 5645 5643 5640 5638 5635 5631 5627 5623 5619 5614 5609 5605 5600 5595 5591 5585 5578 5572 5567 5561 5554 5548 5542 5535 5530 5525 5519 5513 5507 5501 5496 5490 5485
5642 5643 5643 5643 5643 5642 5641 5639 5637 5636 5634 5632 5629 5627 5624 5621 5617 5613 5610 5606 5601 5596 5591 5586 5581 5576 5570 5564 5559 5554 5548 5542 5537 5531 5525 5519 5514 5509 5503 5497 5491 5485 5480
5631 5631 5632 5632 5632 5631 5630 5629 5627 5625 5624 5621 5619 5616 5613 5610 5606 5603 5599 5596 5592 5588 5583 5578 5573 5568 5562 5557 5551 5546 5541 5536 5531 5526 5520 5514 5509 5504 5500 5494 5487 5482 5477